This demonstration page uses our WeatherBlox Daily Observations layout. Learn more.

Left ArrowRight Arrow

34.16533, -84.80231

Hourly Observations for July 29, 2020

Temp ( °F °C ) Dew Point ( °F °C ) Humidity (%) Winds ( mph kmh ) Pressure ( in mb ) Visibility ( mi km ) Precip ( " mm )
12:53 am 00:53 Clear 77 25 71 21.7 82 82 SSW 3 6 29.99 1016 10 16 0.00 0.00
1:53 am 01:53 Clear 76 24.4 71 21.7 85 85 Calm 29.99 1016 10 16 0.00 0.00
2:53 am 02:53 Partly Cloudy 74 23.3 71 21.7 91 91 Calm 29.98 1015 10 16 0.00 0.00
3:53 am 03:53 Clear 73 22.8 70 21.1 90 90 Calm 29.99 1016 10 16 0.00 0.00
4:28 am 04:28 Mostly Cloudy 73 22.8 70 21.1 90 90 Calm 30.02 1016 10 16 0.00 0.00
4:42 am 04:42 Cloudy 73 22.8 71 21.7 94 94 Calm 30.02 1016 10 16 0.00 0.00
4:53 am 04:53 Cloudy 73 22.8 71 21.7 94 94 Calm 30.00 1016 10 16 0.00 0.00
5:53 am 05:53 Mostly Cloudy 73 22.8 70 21.1 90 90 Calm 29.99 1016 10 16 0.00 0.00
6:48 am 06:48 Cloudy 73 23 72 22 94 94 Calm 30.02 1017 10 16 0.00 0.00
6:53 am 06:53 Cloudy 74 23.3 71 21.7 91 91 Calm 30.01 1016 10 16 0.00 0.00
7:53 am 07:53 Cloudy 75 23.9 71 21.7 88 88 Calm 30.02 1017 10 16 0.00 0.00
8:23 am 08:23 Partly Cloudy 76 24.4 71 21.7 85 85 Calm 30.03 1017 10 16 0.00 0.00
8:53 am 08:53 Sunny 78 25.6 71 21.7 79 79 SW 3 6 30.03 1017 10 16 0.00 0.00
9:42 am 09:42 Mostly Cloudy 80 26.7 71 21.7 74 74 Calm 30.05 1017 10 16 0.00 0.00
9:53 am 09:53 Cloudy 80 26.7 71 21.7 74 74 Calm 30.04 1017 10 16 0.00 0.00
10:34 am 10:34 Cloudy with Rain 78 25.6 73 22.8 85 85 Calm 30.05 1018 3 4 0.05 1.27
10:43 am 10:43 Cloudy with Light Rain 78 25.6 73 22.8 85 85 SSE 3 6 30.05 1018 9 14 0.05 1.27
10:53 am 10:53 Cloudy 80 26.7 74 23.3 82 82 Calm 30.04 1017 10 16 0.05 1.27
11:53 am 11:53 Cloudy with Light Rain 77 25 73 22.8 88 88 Calm 30.04 1017 8 13 0.00 0.00
12:53 pm 12:53 Mostly Cloudy 82 27.8 74 23.3 77 77 ESE 3 6 30.01 1016 10 16 0.00 0.00
1:53 pm 13:53 Partly Cloudy 86 30 72 22.2 63 63 VRB 3 6 29.99 1016 10 16 0.00 0.00
2:53 pm 14:53 Mostly Cloudy 89 31.7 71 21.7 55 55 undefined N/A 29.96 1015 10 16 0.00 0.00
3:53 pm 15:53 Cloudy 82 27.8 74 23.3 77 77 VRB 3 6 29.94 1014 10 16 0.02 0.51
4:53 pm 16:53 Cloudy 84 28.9 73 22.8 70 70 Calm 29.92 1013 10 16 0.00 0.00
5:53 pm 17:53 Mostly Cloudy 88 31.1 73 22.8 61 61 Calm 29.92 1013 10 16 0.00 0.00
6:53 pm 18:53 Partly Cloudy 87 30.6 73 22.8 63 63 S 8 13 29.91 1013 10 16 0.00 0.00
7:53 pm 19:53 Sunny 84 28.9 74 23.3 72 72 S 3 6 29.93 1014 10 16 0.00 0.00
8:53 pm 20:53 Clear 82 27.8 73 22.8 74 74 SSW 3 6 29.95 1014 10 16 0.00 0.00
9:53 pm 21:53 Mostly Clear 80 26.7 73 22.8 79 79 Calm 29.97 1015 10 16 0.00 0.00
10:53 pm 22:53 Cloudy 80 26.7 74 23.3 82 82 S 3 6 29.98 1015 10 16 0.00 0.00
11:53 pm 23:53 Cloudy 80 26.7 74 23.3 82 82 Calm 29.98 1015 10 16 0.00 0.00

Powered by AerisWeather